Temp
62 62 62 62 62 62 63 63 63 63 63 63 63 63 63 63 62 63 66 79 79 81 81 84 85 85 84 82 85 82 63 62 66 65 65 70 69 70 74 76 84 86 82 84 87
62 62 62 62 62 62 62 62 62 63 63 62 62 62 63 63 62 65 79 82 83 81 82 81 79 82 76 81 83 71 63 69 78 74 69 72 71 70 72 73 70 82 87 89 89
62 62 61 61 62 62 62 62 62 62 62 62 62 62 62 62 62 75 82 82 82 82 86 86 87 83 76 81 79 69 63 79 79 78 76 73 70 74 70 70 79 78 82 86 87
61 61 61 61 61 61 61 61 61 61 61 61 62 62 63 62 62 82 81 82 81 84 84 83 82 78 75 75 70 60 70 79 80 81 77 73 76 71 72 70 82 85 86 85 84
61 61 61 61 61 61 61 61 61 60 61 61 62 62 60 60 68 83 81 81 82 82 81 79 76 78 74 79 72 65 78 80 85 82 79 79 74 72 69 72 80 87 86 84 84
61 61 60 60 61 61 61 61 61 60 60 61 62 62 57 58 88 84 84 81 84 81 81 81 80 85 81 82 78 80 78 78 83 80 80 74 74 76 70 75 80 85 83 83 84
60 60 60 60 61 61 61 60 60 60 60 62 62 65 62 66 89 86 85 78 80 82 78 85 86 82 83 80 84 79 73 74 82 80 77 79 70 69 74 80 82 83 84 84 85
60 60 60 60 61 60 60 59 59 60 60 61 63 63 59 86 87 88 86 82 85 85 85 88 90 84 80 85 81 77 68 61 78 78 78 74 60 72 75 76 79 82 84 84 86
60 60 60 60 60 59 58 58 59 62 64 64 57 57 63 85 84 88 88 83 83 84 86 93 87 75 79 71 66 70 61 65 70 79 76 71 63 73 76 74 76 81 81 82 85
60 60 60 59 58 57 57 57 61 61 64 69 72 60 71 78 85 89 89 90 83 82 82 81 73 65 66 62 55 62 65 68 66 65 67 66 66 70 73 76 78 78 80 80 84
59 59 58 58 58 56 56 62 58 59 66 64 67 72 81 86 91 86 90 87 84 78 66 73 61 57 64 70 74 75 72 68 63 70 63 64 65 67 71 74 75 77 78 79 82
59 58 58 58 57 56 54 63 71 76 64 73 78 80 85 85 79 84 89 76 75 66 71 64 59 70 76 77 76 75 72 61 64 68 66 64 64 69 70 73 76 74 75 80 81
59 58 57 57 56 53 64 72 84 82 63 74 79 77 81 84 78 78 82 79 72 68 68 62 69 78 76 75 73 72 67 67 65 65 64 63 58 64 70 75 76 76 78 78 78
58 58 57 55 56 73 74 81 82 83 54 67 71 78 82 83 74 88 87 80 75 68 70 67 77 77 74 73 74 61 78 78 67 63 54 66 48 56 65 65 71 74 73 76 80
57 57 56 55 54 67 79 85 84 75 43 73 74 88 80 73 76 79 88 80 70 72 69 66 72 72 72 74 78 71 79 76 73 66 60 60 53 57 62 63 66 71 75 76 82
57 56 55 57 57 67 80 83 77 53 48 69 77 74 72 74 77 81 80 82 81 73 72 73 82 78 75 82 81 83 77 72 65 59 52 62 58 52 56 63 65 74 76 77 79
55 54 54 69 69 84 85 74 52 43 64 62 64 69 70 69 72 74 72 67 62 53 56 70 73 78 82 71 76 75 64 52 51 49 50 63 59 52 63 64 66 66 66 78 75
54 53 57 68 78 83 78 62 45 53 55 66 66 69 65 70 70 74 67 62 71 68 59 56 55 72 79 69 65 66 62 52 50 49 56 65 48 54 65 69 69 69 70 70 71
53 66 69 78 75 76 65 47 47 54 62 62 66 61 61 70 65 67 65 64 70 71 58 54 60 78 80 79 75 66 61 69 60 61 54 54 55 60 66 64 67 67 67 67 68
56 68 75 89 87 73 60 48 53 64 66 68 57 61 55 62 57 53 57 71 66 75 68 64 52 71 79 78 74 63 68 56 56 50 44 51 50 52 60 64 66 64 64 65 67
63 65 82 90 81 63 47 52 64 72 72 65 60 58 59 58 55 51 54 64 71 71 71 64 57 62 73 62 61 63 58 58 59 55 50 44 48 59 60 62 63 64 64 63 65
70 61 85 86 63 57 52 57 63 70 73 68 68 64 61 61 56 56 54 62 73 71 61 61 58 54 59 69 76 68 62 60 51 50 54 49 46 61 64 64 64 64 63 64 65
62 68 84 82 58 55 59 68 71 69 67 68 67 66 66 59 55 56 59 71 74 68 60 60 55 49 54 54 65 62 66 62 61 57 55 49 47 61 63 64 65 64 64 64 64
63 62 70 72 71 67 63 65 64 73 71 71 67 69 64 59 58 59 62 72 74 70 66 62 59 51 44 50 59 58 66 67 57 52 54 50 51 58 60 59 62 63 65 65 65
65 64 68 60 64 66 65 67 66 63 70 69 64 67 61 52 56 57 64 65 71 66 64 59 52 53 60 64 66 65 67 68 58 62 54 54 55 58 61 60 63 65 66 66 66
63 63 69 65 67 65 59 60 63 65 64 62 62 68 61 53 54 51 57 60 58 64 59 64 50 58 54 66 66 63 68 69 69 64 59 57 55 63 64 65 65 66 67 67 67
71 73 66 62 66 63 60 63 66 66 67 69 67 63 59 62 64 64 66 65 63 59 56 56 53 53 46 58 60 52 61 64 64 65 62 53 53 61 63 64 65 66 68 66 65
MSLP
1016.93 1016.61 1016.28 1016.00 1015.72 1015.49 1015.28 1015.00 1014.80 1014.52 1014.23 1014.02 1013.83 1013.58 1013.32 1013.14 1012.74 1012.41 1010.86 1008.35 1008.41 1008.42 1008.63 1008.55 1008.46 1008.08 1008.19 1007.83 1007.70 1007.88 1008.80 1008.46 1008.23 1009.07 1009.67 1010.54 1010.81 1011.54 1011.27 1010.66 1009.87 1009.46 1010.02 1010.62 1011.60
1016.69 1016.42 1016.21 1015.93 1015.56 1015.32 1015.08 1014.87 1014.59 1014.36 1014.14 1013.94 1013.72 1013.51 1013.21 1012.98 1012.42 1010.63 1007.68 1007.58 1007.58 1007.64 1008.35 1008.13 1007.95 1007.76 1007.73 1006.94 1007.05 1008.03 1008.36 1007.40 1006.95 1007.85 1008.80 1009.82 1010.23 1010.61 1010.82 1010.34 1010.71 1009.97 1010.21 1010.62 1011.59
1016.76 1016.29 1015.94 1015.63 1015.40 1015.06 1014.94 1014.69 1014.49 1014.19 1013.98 1013.78 1013.67 1013.43 1013.15 1012.95 1011.59 1007.51 1005.50 1006.75 1007.26 1007.43 1007.65 1007.44 1007.07 1007.09 1007.04 1006.51 1007.50 1009.29 1008.24 1006.52 1006.48 1007.21 1008.32 1009.36 1010.26 1010.61 1010.50 1010.40 1009.73 1009.68 1010.08 1010.60 1011.34
1016.60 1016.26 1015.84 1015.48 1015.19 1014.80 1014.57 1014.45 1014.25 1014.04 1013.85 1013.67 1013.47 1013.28 1013.00 1012.69 1009.70 1006.20 1005.05 1006.19 1007.01 1007.27 1007.48 1007.20 1006.71 1006.50 1006.35 1006.37 1007.95 1009.82 1008.25 1006.77 1006.29 1006.91 1007.88 1009.01 1010.18 1010.82 1011.04 1011.23 1010.38 1009.92 1010.17 1010.70 1011.34
1016.19 1015.87 1015.64 1015.34 1014.95 1014.54 1014.25 1014.08 1013.92 1013.79 1013.60 1013.52 1013.36 1013.17 1012.77 1011.54 1007.90 1006.12 1006.09 1006.56 1007.08 1007.30 1007.11 1006.97 1006.52 1005.77 1005.51 1005.28 1007.13 1007.76 1006.23 1006.68 1005.89 1006.42 1007.43 1008.71 1009.94 1010.61 1011.55 1011.44 1010.69 1010.20 1010.49 1010.72 1011.40
1016.06 1015.69 1015.34 1015.07 1014.65 1014.32 1013.98 1013.72 1013.57 1013.46 1013.35 1013.27 1013.18 1013.13 1012.60 1009.71 1005.32 1005.59 1006.11 1006.60 1006.56 1006.97 1006.69 1006.52 1005.62 1004.78 1004.63 1004.64 1004.90 1005.63 1006.02 1006.38 1006.12 1006.45 1007.38 1008.46 1009.87 1010.40 1011.85 1011.22 1010.94 1010.40 1010.64 1010.78 1010.97
1015.72 1015.28 1014.91 1014.59 1014.32 1013.94 1013.69 1013.43 1013.33 1013.12 1013.02 1012.99 1012.86 1012.66 1011.36 1007.71 1005.02 1005.28 1005.67 1006.15 1006.10 1006.41 1006.33 1005.71 1005.13 1004.86 1004.36 1004.34 1004.17 1005.09 1005.55 1006.28 1006.14 1006.49 1007.47 1008.49 1010.09 1010.69 1010.90 1010.86 1010.69 1010.53 1010.69 1010.77 1010.83
1015.40 1015.01 1014.61 1014.18 1013.83 1013.62 1013.39 1013.18 1012.98 1012.74 1012.65 1012.84 1012.70 1012.06 1009.52 1005.24 1004.60 1005.22 1005.24 1005.83 1005.94 1005.96 1005.93 1004.92 1004.49 1004.52 1004.43 1004.14 1004.67 1005.05 1006.49 1006.68 1006.20 1006.74 1007.74 1008.06 1010.35 1010.89 1010.65 1010.57 1010.55 1010.55 1010.54 1010.69 1011.04
1015.11 1014.67 1014.23 1013.95 1013.62 1013.29 1013.05 1012.76 1012.50 1012.23 1011.94 1012.33 1012.46 1011.36 1007.64 1004.31 1004.38 1004.09 1004.52 1005.20 1005.58 1005.69 1005.62 1005.11 1004.48 1004.77 1004.50 1004.71 1004.77 1005.08 1005.92 1006.50 1006.61 1006.83 1007.33 1008.37 1010.61 1010.95 1010.97 1010.91 1010.48 1010.45 1010.53 1010.71 1011.00
1014.85 1014.41 1014.08 1013.71 1013.38 1013.07 1012.61 1012.24 1011.89 1012.09 1011.84 1011.89 1010.91 1010.37 1006.49 1004.08 1003.77 1003.79 1003.95 1004.33 1005.13 1005.42 1005.49 1005.17 1004.90 1005.20 1005.29 1005.44 1005.07 1004.54 1004.96 1005.62 1006.92 1008.36 1008.71 1009.76 1010.18 1011.05 1010.99 1010.69 1010.50 1010.51 1010.63 1010.74 1010.95
1014.61 1014.19 1013.81 1013.52 1013.32 1013.01 1012.66 1011.78 1012.01 1011.27 1010.26 1008.64 1007.57 1006.26 1004.36 1003.12 1003.15 1003.51 1003.53 1003.83 1004.55 1005.22 1005.48 1005.17 1005.68 1005.73 1005.60 1005.11 1004.46 1004.16 1004.58 1005.65 1007.89 1008.55 1009.00 1010.45 1010.27 1010.74 1010.99 1010.81 1010.65 1010.68 1010.59 1010.82 1011.06
1014.02 1013.78 1013.49 1013.19 1013.10 1013.02 1012.99 1011.12 1008.24 1006.84 1006.96 1006.49 1005.74 1004.93 1003.79 1003.17 1003.15 1003.27 1003.41 1003.92 1004.27 1005.02 1005.32 1005.60 1005.72 1005.46 1005.16 1004.53 1004.00 1003.73 1004.36 1006.54 1008.07 1008.73 1009.29 1009.93 1010.90 1011.20 1011.36 1010.79 1010.58 1010.78 1010.76 1010.72 1011.01
1013.96 1013.60 1013.24 1012.87 1012.57 1012.79 1011.12 1009.19 1006.77 1005.99 1006.15 1004.78 1004.15 1003.82 1002.53 1002.66 1002.94 1003.12 1003.55 1003.87 1004.33 1004.82 1005.16 1005.39 1004.68 1004.64 1004.42 1003.68 1003.38 1003.11 1003.58 1005.33 1006.56 1008.86 1009.09 1010.16 1011.63 1012.07 1011.55 1011.26 1011.19 1011.11 1011.07 1010.89 1011.07
1013.83 1013.29 1013.05 1012.55 1012.37 1010.42 1009.11 1006.90 1006.39 1005.75 1005.78 1003.80 1003.05 1002.64 1002.12 1002.44 1002.69 1002.74 1003.33 1003.85 1004.03 1004.49 1004.87 1004.91 1003.86 1003.80 1003.24 1002.86 1002.57 1002.59 1002.67 1003.35 1005.84 1007.45 1008.87 1009.25 1012.51 1012.91 1012.21 1011.78 1011.75 1011.63 1011.47 1011.29 1011.26
1013.73 1013.34 1012.93 1012.92 1012.56 1010.48 1007.14 1006.05 1005.88 1005.94 1005.33 1002.92 1002.40 1001.66 1002.02 1002.51 1002.31 1002.43 1003.05 1003.60 1003.78 1003.91 1004.32 1003.92 1003.09 1002.85 1002.35 1001.91 1001.66 1001.89 1002.42 1003.30 1004.76 1006.45 1008.00 1010.07 1011.13 1011.95 1012.39 1012.39 1012.16 1011.86 1011.80 1011.71 1011.43
1013.60 1013.46 1013.01 1012.54 1012.11 1008.91 1007.17 1006.39 1006.00 1006.61 1004.83 1002.69 1002.18 1002.06 1002.59 1002.79 1002.65 1002.58 1003.10 1003.56 1003.36 1003.85 1003.71 1003.28 1002.32 1001.93 1001.40 1001.17 1000.97 1001.27 1002.18 1003.25 1004.66 1006.34 1007.52 1008.35 1009.98 1012.01 1012.31 1011.87 1012.26 1012.07 1011.73 1012.09 1012.05
1012.70 1012.65 1013.13 1011.33 1009.35 1006.64 1006.55 1006.70 1007.17 1007.54 1006.63 1004.93 1004.05 1002.79 1002.79 1003.00 1003.06 1003.02 1003.40 1003.88 1003.96 1004.04 1003.52 1002.98 1002.25 1001.39 1000.97 1000.94 1000.78 1001.44 1002.27 1003.82 1005.60 1006.57 1007.48 1007.03 1009.25 1010.42 1011.04 1011.45 1011.83 1012.92 1013.18 1012.38 1012.41
1011.69 1011.39 1010.37 1009.54 1007.95 1007.24 1006.99 1007.32 1008.43 1008.70 1007.82 1006.31 1005.26 1003.78 1003.48 1003.27 1003.28 1003.14 1003.68 1004.23 1004.11 1003.96 1003.73 1003.20 1002.47 1001.34 1000.63 1000.80 1001.19 1001.77 1002.71 1003.84 1005.20 1005.61 1006.25 1006.66 1009.25 1009.79 1010.40 1012.18 1012.57 1012.23 1012.92 1013.84 1013.35
1010.89 1009.61 1008.89 1006.82 1007.15 1007.61 1008.08 1009.08 1009.49 1009.09 1008.07 1006.97 1005.30 1004.26 1003.62 1003.79 1004.54 1004.87 1004.32 1004.54 1004.05 1003.63 1004.01 1003.30 1002.39 1001.10 1000.60 1001.02 1001.42 1001.80 1002.14 1002.65 1004.07 1004.94 1005.90 1008.40 1010.41 1011.23 1011.31 1012.28 1012.60 1012.84 1012.43 1014.50 1014.01
1011.21 1009.05 1007.00 1005.06 1005.88 1007.34 1008.68 1009.74 1009.68 1008.78 1007.96 1007.11 1006.35 1005.61 1005.48 1005.61 1006.53 1007.37 1006.43 1004.47 1004.86 1003.98 1003.52 1003.76 1003.64 1001.90 1000.80 1000.98 1001.29 1001.69 1002.69 1003.17 1003.96 1005.50 1006.75 1009.30 1010.57 1011.02 1011.71 1012.56 1013.40 1013.96 1013.67 1014.83 1014.23
1010.72 1008.41 1004.83 1004.24 1005.59 1008.26 1010.13 1009.98 1008.69 1007.58 1007.31 1007.04 1006.49 1006.29 1006.68 1007.07 1008.01 1009.22 1008.95 1007.29 1005.61 1004.90 1004.71 1004.91 1004.91 1003.01 1001.46 1001.57 1001.67 1002.34 1002.93 1003.66 1004.45 1005.48 1006.98 1009.65 1011.46 1011.74 1012.56 1013.15 1013.87 1014.47 1014.99 1015.03 1014.85
1010.25 1007.82 1004.42 1004.00 1006.90 1008.86 1009.55 1009.32 1007.76 1006.94 1006.83 1006.62 1006.34 1006.82 1007.28 1008.12 1009.01 1009.97 1009.96 1008.24 1006.60 1005.88 1005.97 1006.05 1006.13 1004.54 1002.63 1002.09 1002.23 1002.60 1003.03 1003.83 1005.21 1006.36 1007.52 1009.37 1012.36 1012.94 1013.16 1014.28 1014.53 1015.11 1015.63 1015.73 1016.03
1010.65 1007.53 1004.04 1004.13 1006.23 1008.17 1008.19 1007.47 1007.03 1006.69 1006.71 1006.53 1006.64 1007.09 1007.62 1008.08 1009.28 1009.82 1009.15 1007.94 1007.00 1006.66 1007.07 1007.18 1006.96 1005.33 1004.24 1003.55 1003.01 1003.04 1003.19 1003.67 1004.39 1005.50 1007.44 1009.61 1012.51 1013.16 1013.25 1014.65 1015.34 1015.63 1015.92 1016.30 1016.60
1010.69 1007.38 1005.18 1004.56 1005.50 1006.13 1006.56 1006.68 1006.95 1006.86 1006.62 1006.76 1006.81 1006.70 1007.41 1008.17 1008.39 1008.36 1008.22 1007.42 1007.14 1007.05 1007.21 1007.65 1007.65 1007.36 1006.39 1005.33 1004.46 1003.57 1003.47 1003.58 1004.50 1006.23 1008.17 1010.05 1012.16 1013.41 1014.15 1015.04 1015.17 1016.13 1016.30 1016.71 1016.62
1010.28 1007.65 1006.49 1006.41 1006.50 1006.80 1006.99 1006.79 1006.75 1007.00 1007.12 1007.10 1007.10 1007.21 1007.73 1008.53 1008.91 1008.62 1008.58 1007.62 1007.41 1007.34 1007.27 1007.60 1008.10 1007.88 1006.59 1005.92 1004.98 1004.23 1003.77 1004.07 1004.90 1006.35 1008.17 1010.37 1012.02 1013.53 1014.24 1014.85 1015.13 1015.87 1016.36 1016.66 1016.90
1009.90 1008.58 1007.27 1006.84 1006.86 1006.94 1007.28 1007.56 1007.60 1007.80 1007.96 1007.67 1007.62 1007.63 1008.09 1009.08 1009.45 1009.64 1009.08 1008.18 1007.45 1007.47 1007.53 1007.67 1008.94 1008.41 1007.66 1006.44 1005.69 1004.97 1003.78 1004.29 1004.85 1006.17 1007.81 1009.78 1012.09 1013.07 1014.12 1014.35 1014.71 1015.78 1016.19 1016.62 1017.22
1010.36 1009.17 1008.40 1007.41 1007.04 1007.24 1007.83 1008.02 1008.20 1008.45 1008.47 1008.51 1008.58 1008.85 1009.20 1009.53 1009.53 1009.25 1008.88 1008.66 1008.04 1008.07 1008.28 1008.57 1009.36 1010.06 1009.08 1007.77 1006.77 1006.35 1005.53 1005.19 1005.61 1006.09 1007.60 1010.25 1012.12 1013.79 1014.23 1014.67 1015.03 1016.01 1016.59 1017.40 1017.99
Wind_Speed
14 14 13 13 13 13 12 12 12 12 13 13 12 13 12 12 13 5 9 11 9 14 3 6 10 13 13 16 16 6 3 2 9 9 8 13 7 3 9 3 13 10 13 19 24
13 13 14 14 15 14 13 12 12 13 13 13 13 12 13 11 7 13 14 17 9 15 6 11 12 14 10 12 7 5 3 3 9 14 16 11 6 9 4 4 6 21 15 17 26
14 13 13 13 15 15 15 13 13 13 14 13 12 12 12 9 5 8 10 23 11 11 11 15 14 16 15 12 6 6 5 6 14 21 17 12 8 2 7 2 23 24 20 16 22
16 16 16 15 14 15 15 15 13 13 13 13 12 12 11 5 1 3 2 21 12 8 9 15 15 12 10 13 11 4 16 8 18 20 18 14 13 8 10 4 7 21 17 16 20
17 17 17 17 15 14 15 15 15 14 13 12 11 10 7 5 11 7 12 11 7 5 13 14 15 11 14 9 19 17 10 7 16 18 16 17 12 11 13 5 3 19 13 11 20
17 17 17 17 17 16 16 15 14 14 13 13 9 8 4 6 5 13 11 9 9 10 12 14 11 11 10 15 7 3 2 11 14 17 19 17 15 10 15 15 10 19 12 10 10
17 17 17 17 18 17 16 15 15 14 13 11 6 5 5 16 12 12 11 7 8 11 9 16 19 10 7 14 8 4 7 7 16 19 18 18 13 13 15 15 19 18 14 10 9
17 16 16 17 16 16 16 15 15 14 12 9 4 4 9 11 15 10 10 9 10 10 16 14 13 10 7 7 3 7 7 5 14 17 14 7 9 13 8 11 17 18 15 11 9
18 17 16 16 15 13 13 13 14 11 9 8 5 4 9 4 9 7 10 11 10 9 16 19 11 5 9 6 6 8 6 15 14 9 18 5 11 12 5 12 14 17 13 9 15
16 17 16 13 13 12 15 14 8 8 4 8 9 4 8 12 8 11 10 13 12 12 14 13 1 1 6 4 8 6 8 2 9 2 10 3 12 10 7 14 16 15 13 9 15
17 17 14 12 11 9 11 3 2 3 7 10 9 7 2 9 9 9 12 12 12 8 7 7 4 8 11 12 16 12 11 8 7 8 7 9 18 14 10 10 15 14 12 10 14
17 16 14 11 10 8 4 5 10 7 6 18 18 17 19 6 9 9 8 6 8 8 9 4 8 12 15 19 19 18 13 11 6 4 9 17 15 12 11 10 14 8 7 13 13
18 18 16 12 13 4 7 12 14 10 4 13 14 12 13 11 10 9 10 9 8 8 8 9 12 18 19 17 17 15 9 15 12 10 11 6 6 8 12 8 2 2 4 7 10
17 14 15 16 4 5 11 16 17 6 3 7 10 10 5 9 6 13 10 8 6 11 10 11 20 16 17 14 12 8 9 11 21 10 5 6 2 6 13 11 9 9 5 7 8
14 13 10 3 9 5 10 6 6 3 4 13 12 6 5 6 5 11 14 10 11 10 7 11 14 14 15 15 12 12 10 15 22 18 9 13 8 4 3 14 12 13 9 8 10
15 12 10 4 4 14 16 16 3 2 3 4 6 7 10 10 13 10 11 9 11 11 11 14 13 15 9 14 12 9 7 7 3 5 1 9 9 6 8 11 8 15 14 9 8
17 9 6 7 6 11 10 4 2 4 17 13 6 2 7 8 13 10 11 10 7 4 7 11 17 11 9 6 6 6 2 3 1 3 7 11 10 4 13 14 15 4 9 12 10
20 16 10 9 8 10 10 4 4 3 7 7 8 19 10 10 11 14 9 8 14 13 6 7 7 13 4 4 7 7 6 6 8 6 7 6 7 6 8 10 11 8 10 9 7
27 3 4 7 14 5 1 5 5 1 6 7 18 6 4 4 6 13 9 10 13 11 5 3 10 8 8 7 9 8 8 10 4 7 3 6 5 8 5 7 9 7 7 1 5
4 3 7 15 6 3 7 1 4 8 8 11 9 7 7 10 9 19 12 10 3 9 5 1 5 12 11 4 0 2 4 6 2 4 4 4 3 8 11 13 13 9 13 8 10
4 2 6 9 10 7 3 4 8 7 2 6 5 4 7 7 7 4 7 21 13 8 11 7 4 9 8 4 4 2 4 2 1 1 5 6 0 8 9 10 13 13 13 12 11
5 3 7 3 7 2 8 7 8 9 5 4 6 8 5 11 8 3 5 9 14 8 5 3 4 6 7 4 7 6 6 4 5 5 3 6 1 1 14 12 14 12 13 13 11
3 5 2 3 6 5 4 7 8 3 8 3 4 3 4 2 7 7 8 10 8 7 3 6 5 5 6 1 5 5 8 7 3 2 5 4 4 5 15 12 13 12 13 11 11
3 4 3 2 2 2 2 5 7 1 4 3 7 4 7 2 2 4 7 10 4 5 1 5 3 4 4 4 3 4 5 7 2 5 6 3 14 15 16 15 15 11 12 12 12
3 2 2 4 6 6 7 7 9 4 4 2 2 1 5 6 6 3 5 4 6 3 3 5 3 6 9 8 9 9 9 9 1 11 8 7 11 15 16 17 16 14 13 14 13
3 4 7 2 5 4 4 5 11 9 8 9 7 9 8 6 5 3 4 6 0 5 1 2 1 9 8 6 6 9 6 6 6 13 10 10 16 14 13 15 17 13 13 14 14
5 6 3 6 5 7 5 6 8 3 5 8 9 9 13 7 6 7 10 9 6 4 5 3 4 3 6 11 7 6 8 7 5 8 14 13 12 14 16 14 16 13 14 14 11
Wind_Direction
337 334 336 334 332 331 332 331 329 329 327 325 328 326 323 320 308 231 235 226 186 227 236 259 211 229 248 242 220 153 253 266 171 137 137 155 129 113 203 199 134 131 145 133 141
333 333 332 332 328 327 327 328 326 325 323 323 324 325 322 322 290 254 229 235 244 187 212 234 196 218 234 233 221 61 280 7 89 127 142 138 136 163 158 117 102 134 143 140 150
329 328 325 325 324 324 323 324 322 319 317 319 319 322 321 318 269 242 217 216 190 172 214 234 211 208 228 233 123 14 257 129 111 118 128 125 115 125 109 62 150 145 156 149 142
327 323 321 320 319 318 316 315 313 310 309 312 315 320 318 276 124 10 124 175 173 193 225 241 247 234 244 241 111 33 262 251 134 134 136 142 135 104 116 175 153 143 163 143 144
324 321 319 318 315 313 310 309 308 305 303 304 310 319 310 226 250 140 125 138 158 205 212 232 254 225 232 239 138 179 221 85 143 139 132 133 129 111 104 249 230 151 171 160 154
322 319 317 315 313 311 307 305 302 301 300 296 296 308 240 252 125 146 164 159 188 195 214 232 253 237 258 260 148 105 227 169 141 135 133 135 129 117 154 198 210 163 174 179 161
321 318 314 311 309 308 307 303 300 301 297 289 276 251 264 246 137 165 165 183 200 188 218 233 248 263 271 280 131 80 355 7 170 137 135 129 151 146 169 181 158 169 178 180 169
322 316 313 311 309 309 306 301 300 298 286 269 244 242 257 235 238 186 176 180 211 192 234 251 252 266 277 280 35 195 64 322 143 134 146 136 143 152 170 176 164 173 176 179 143
326 324 319 314 313 308 301 297 295 289 294 188 205 243 260 196 191 198 156 180 199 200 233 254 254 264 313 289 301 188 184 212 155 166 155 116 141 154 193 185 171 174 175 180 144
326 325 320 314 310 312 304 287 283 305 208 193 265 252 249 221 194 225 183 178 184 208 233 243 139 340 293 280 231 233 206 282 101 169 47 312 140 156 209 174 174 171 181 166 151
330 325 319 316 311 317 322 219 171 200 237 208 186 232 228 220 174 197 201 188 176 203 207 236 105 219 243 250 250 258 216 165 152 107 90 235 147 165 199 183 176 183 174 158 151
329 326 321 321 315 313 289 252 261 287 289 221 251 256 256 232 182 177 203 175 178 196 203 155 217 233 227 243 249 255 267 73 36 132 55 201 138 158 194 202 179 183 176 159 156
330 329 327 325 320 274 217 259 291 295 288 287 219 243 260 160 176 199 166 214 198 204 197 220 230 223 242 238 247 246 255 182 158 137 116 136 71 187 198 190 188 251 196 158 156
327 321 326 325 319 309 264 258 248 320 306 263 171 242 227 162 211 188 185 208 190 202 213 220 249 229 234 246 237 244 252 188 133 141 181 174 54 313 213 199 210 213 214 185 179
321 316 311 325 318 290 279 334 328 356 275 144 174 206 219 199 206 180 171 232 235 191 192 247 241 248 222 242 231 243 143 151 162 186 112 200 121 225 223 193 198 208 215 216 198
323 318 320 184 213 242 277 291 332 275 310 221 122 166 207 203 246 174 167 224 252 259 223 235 250 244 229 238 235 259 187 167 91 83 92 193 150 202 183 184 192 211 199 213 206
316 298 278 308 244 296 299 288 285 33 338 342 13 168 221 198 225 207 171 209 229 226 253 230 248 253 249 234 281 286 180 277 273 155 225 208 183 237 175 162 173 180 273 220 206
308 303 220 220 244 278 299 341 34 207 275 288 290 297 226 212 229 181 169 201 239 250 254 210 253 248 210 222 228 251 196 175 206 191 216 110 142 249 185 145 149 136 243 292 288
310 205 232 237 220 241 313 62 213 247 277 304 318 317 197 127 18 346 213 210 225 238 193 282 225 237 171 194 223 287 229 229 294 273 143 110 50 39 106 97 104 126 151 289 335
292 273 262 253 189 103 59 242 222 208 248 281 297 32 14 27 37 18 358 224 27 20 341 329 323 298 188 149 330 110 314 4 353 282 72 88 150 156 170 140 105 92 95 62 33
245 277 246 188 73 55 106 249 245 234 51 303 303 95 38 46 80 66 343 303 9 350 343 69 351 293 132 163 133 322 303 296 89 237 140 146 94 344 121 107 98 89 87 72 58
305 292 255 146 86 129 226 205 237 147 100 283 27 32 39 74 48 138 185 273 331 322 23 352 264 281 236 275 181 244 250 220 137 300 86 113 78 345 89 96 89 80 88 82 71
279 254 186 141 124 227 235 231 42 347 180 260 146 148 68 127 126 152 235 279 294 28 46 351 312 346 302 145 278 236 263 271 291 67 178 94 151 151 91 93 97 90 100 94 91
287 298 332 37 113 23 46 132 131 44 352 4 325 148 115 144 207 212 246 199 291 32 263 150 329 150 213 259 320 219 253 271 238 63 70 11 131 145 130 127 113 103 103 103 95
243 316 331 21 358 66 9 6 80 85 19 321 197 323 66 46 5 272 348 195 218 164 296 103 338 336 250 262 343 341 215 249 224 137 132 182 135 148 139 132 121 119 115 106 102
312 12 345 144 240 122 93 32 56 31 7 23 11 10 113 119 148 301 354 1 303 159 197 351 276 325 324 337 347 342 304 213 8 107 118 92 101 124 121 118 111 113 115 104 98
324 339 0 271 294 82 50 44 77 9 76 36 356 23 57 50 350 311 316 302 13 28 347 81 98 247 285 321 330 351 352 46 18 88 128 141 152 146 140 132 125 127 104 93 91